sat.trackr.live / text

‹ back to catalog

ONEWEB-0215

NORAD 48800 · 2021-045AK

PAYLOAD ACTIVE UNKNOWN

§ Identity

Operator
Country
UK
Launch date
2021-05-28
Launch site
VOSTO
Launch vehicle
Mass (kg)
RCS (m²)

Purposes: comms

External: N2YO · Heavens-Above · Gunter

§ Orbital elements

Epoch: 2026-09-19T17:16:34.667616Z

Period
109.46 min
Inclination
87.8997°
Eccentricity
0.0002044
Mean motion
13.15549576 rev/d
Perigee alt
1,200.2 km
Apogee alt
1,203.3 km
Semi-major
7,579.9 km
B*
1.4566e-4
RAAN
240.3390°
Arg perigee
63.6846°
Mean anomaly
296.4494°
Rev number
25,672

§ Raw data

ONEWEB-02151 48800U 21045AK  26262.71984569  .00000068  00000+0  14566-3 0  99972 48800  87.8997 240.3390 0002044  63.6846 296.4494 13.15549576256720

JSON: /api/v1/satellites/48800 · /tle

For live sub-satellite position, see the globe view (requires WebGL).

§ Visibility from observer

Set your observer location to see the next 7 days of passes ≥ 10°. The values pass through the URL so the page stays shareable.

No JS? Fill the form by hand. The geolocation button needs JavaScript.